Time,TemperatureF,DewpointF,PressureIn,WindDirection,WindDirectionDegrees,WindSpeedMPH,WindSpeedGustMPH,Humidity,HourlyPrecipIn,Conditions,Clouds,dailyrainin,SoftwareType,DateUTC
2013-03-03 00:03:00,57.0,28.2,30.07,NE,40,2.0,3.0,33,0.00,,---,0.00,VWS V14.01,2013-03-03 07:03:00,
2013-03-03 00:08:00,55.3,28.8,30.07,NE,41,4.0,4.0,36,0.00,,---,0.00,VWS V14.01,2013-03-03 07:08:00,
2013-03-03 00:13:00,53.3,29.6,30.07,NE,49,3.0,5.0,40,0.00,,---,0.00,VWS V14.01,2013-03-03 07:13:00,
2013-03-03 00:18:00,52.2,29.8,30.07,NE,46,2.0,5.0,42,0.00,,---,0.00,VWS V14.01,2013-03-03 07:18:00,
2013-03-03 00:24:00,51.4,30.2,30.07,NE,36,4.0,5.0,44,0.00,,---,0.00,VWS V14.01,2013-03-03 07:24:00,
2013-03-03 00:29:00,50.5,30.0,30.07,NE,51,5.0,6.0,45,0.00,,---,0.00,VWS V14.01,2013-03-03 07:29:00,
2013-03-03 00:34:00,49.8,30.4,30.06,NE,43,3.0,5.0,47,0.00,,---,0.00,VWS V14.01,2013-03-03 07:34:00,
2013-03-03 00:39:00,49.4,30.5,30.06,NNE,31,3.0,5.0,48,0.00,,---,0.00,VWS V14.01,2013-03-03 07:39:00,
2013-03-03 00:44:00,49.5,30.1,30.06,NNW,346,2.0,5.0,47,0.00,,---,0.00,VWS V14.01,2013-03-03 07:44:00,
2013-03-03 00:49:00,49.5,30.1,30.06,NNE,22,1.0,5.0,47,0.00,,---,0.00,VWS V14.01,2013-03-03 07:49:00,
2013-03-03 00:54:00,50.0,29.5,30.06,NNE,26,2.0,5.0,45,0.00,,---,0.00,VWS V14.01,2013-03-03 07:54:00,
2013-03-03 00:59:00,50.7,29.0,30.06,North,351,1.0,5.0,43,0.00,,---,0.00,VWS V14.01,2013-03-03 07:59:00,
2013-03-03 01:04:00,51.1,28.8,30.06,NNE,24,4.0,4.0,42,0.00,,---,0.00,VWS V14.01,2013-03-03 08:04:00,
2013-03-03 01:09:00,52.0,29.0,30.06,NNE,18,3.0,5.0,41,0.00,,---,0.00,VWS V14.01,2013-03-03 08:09:00,
2013-03-03 01:15:00,52.4,28.8,30.06,NNE,18,3.0,6.0,40,0.00,,---,0.00,VWS V14.01,2013-03-03 08:15:00,
2013-03-03 01:20:00,52.3,28.7,30.06,NE,48,2.0,6.0,40,0.00,,---,0.00,VWS V14.01,2013-03-03 08:20:00,
2013-03-03 01:25:00,51.3,29.0,30.06,NE,53,2.0,6.0,42,0.00,,---,0.00,VWS V14.01,2013-03-03 08:25:00,
2013-03-03 01:30:00,50.3,29.2,30.06,NE,48,3.0,6.0,44,0.00,,---,0.00,VWS V14.01,2013-03-03 08:30:00,
2013-03-03 01:35:00,49.5,29.1,30.06,NE,51,4.0,5.0,45,0.00,,---,0.00,VWS V14.01,2013-03-03 08:35:00,
2013-03-03 01:40:00,48.9,29.6,30.05,NNE,22,3.0,5.0,47,0.00,,---,0.00,VWS V14.01,2013-03-03 08:40:00,
2013-03-03 01:45:00,48.5,29.7,30.06,North,9,3.0,5.0,48,0.00,,---,0.00,VWS V14.01,2013-03-03 08:45:00,
2013-03-03 01:50:00,48.1,29.4,30.05,North,356,1.0,5.0,48,0.00,,---,0.00,VWS V14.01,2013-03-03 08:50:00,
2013-03-03 01:55:00,48.8,29.0,30.05,NW,304,0.0,5.0,46,0.00,,---,0.00,VWS V14.01,2013-03-03 08:55:00,
2013-03-03 02:00:00,50.1,28.5,30.05,NNE,30,3.0,5.0,43,0.00,,---,0.00,VWS V14.01,2013-03-03 09:00:00,
2013-03-03 02:06:00,51.8,27.6,30.05,NNE,13,4.0,6.0,39,0.00,,---,0.00,VWS V14.01,2013-03-03 09:06:00,
2013-03-03 02:11:00,53.0,27.4,30.05,North,8,2.0,6.0,37,0.00,,---,0.00,VWS V14.01,2013-03-03 09:11:00,
2013-03-03 02:16:00,54.1,27.1,30.05,North,9,2.0,6.0,35,0.00,,---,0.00,VWS V14.01,2013-03-03 09:16:00,
2013-03-03 02:21:00,55.0,27.2,30.05,NNE,32,2.0,6.0,34,0.00,,---,0.00,VWS V14.01,2013-03-03 09:21:00,
2013-03-03 02:26:00,55.8,27.1,30.04,NE,39,0.0,6.0,33,0.00,,---,0.00,VWS V14.01,2013-03-03 09:26:00,
2013-03-03 02:31:00,54.4,28.7,30.05,East,89,0.0,6.0,37,0.00,,---,0.00,VWS V14.01,2013-03-03 09:31:00,
2013-03-03 02:36:00,51.6,28.1,30.04,ENE,60,3.0,4.0,40,0.00,,---,0.00,VWS V14.01,2013-03-03 09:36:00,
2013-03-03 02:41:00,49.7,28.1,30.04,ENE,58,3.0,5.0,43,0.00,,---,0.00,VWS V14.01,2013-03-03 09:41:00,
2013-03-03 02:46:00,48.8,28.4,30.03,NE,50,2.0,6.0,45,0.00,,---,0.00,VWS V14.01,2013-03-03 09:46:00,
2013-03-03 02:51:00,48.3,28.0,30.03,NE,53,3.0,6.0,45,0.00,,---,0.00,VWS V14.01,2013-03-03 09:51:00,
2013-03-03 02:56:00,48.0,28.2,30.03,NNE,22,5.0,6.0,46,0.00,,---,0.00,VWS V14.01,2013-03-03 09:56:00,
2013-03-03 03:01:00,47.6,27.9,30.02,NE,39,3.0,7.0,46,0.00,,---,0.00,VWS V14.01,2013-03-03 10:01:00,
2013-03-03 03:06:00,47.8,28.0,30.02,NNE,16,6.0,7.0,46,0.00,,---,0.00,VWS V14.01,2013-03-03 10:06:00,
2013-03-03 03:11:00,48.3,28.0,30.02,NNW,342,2.0,7.0,45,0.00,,---,0.00,VWS V14.01,2013-03-03 10:11:00,
2013-03-03 03:16:00,49.2,27.7,30.02,North,6,2.0,7.0,43,0.00,,---,0.00,VWS V14.01,2013-03-03 10:16:00,
2013-03-03 03:21:00,50.3,26.9,30.02,NNW,348,2.0,7.0,40,0.00,,---,0.00,VWS V14.01,2013-03-03 10:21:00,
2013-03-03 03:26:00,51.0,26.3,30.02,North,354,2.0,7.0,38,0.00,,---,0.00,VWS V14.01,2013-03-03 10:26:00,
2013-03-03 03:31:00,51.1,26.4,30.02,NNW,338,3.0,7.0,38,0.00,,---,0.00,VWS V14.01,2013-03-03 10:31:00,
2013-03-03 03:36:00,51.4,26.0,30.02,NNE,25,2.0,3.0,37,0.00,,---,0.00,VWS V14.01,2013-03-03 10:36:00,
2013-03-03 03:41:00,52.5,26.3,30.01,NE,39,2.0,5.0,36,0.00,,---,0.00,VWS V14.01,2013-03-03 10:41:00,
2013-03-03 03:46:00,52.7,26.5,30.02,NNE,23,1.0,5.0,36,0.00,,---,0.00,VWS V14.01,2013-03-03 10:46:00,
2013-03-03 03:51:00,52.0,27.2,30.02,NE,47,0.0,5.0,38,0.00,,---,0.00,VWS V14.01,2013-03-03 10:51:00,
2013-03-03 03:56:00,50.3,28.1,30.02,South,186,0.0,5.0,42,0.00,,---,0.00,VWS V14.01,2013-03-03 10:56:00,
2013-03-03 04:01:00,48.9,27.4,30.01,South,186,0.0,5.0,43,0.00,,---,0.00,VWS V14.01,2013-03-03 11:01:00,
2013-03-03 04:06:00,47.9,27.6,30.01,NE,43,2.0,4.0,45,0.00,,---,0.00,VWS V14.01,2013-03-03 11:06:00,
2013-03-03 04:11:00,47.2,27.5,30.01,NNE,32,3.0,5.0,46,0.00,,---,0.00,VWS V14.01,2013-03-03 11:11:00,
2013-03-03 04:17:00,46.7,27.6,30.01,NE,37,4.0,6.0,47,0.00,,---,0.00,VWS V14.01,2013-03-03 11:17:00,
2013-03-03 04:22:00,46.1,27.5,30.01,NNE,24,2.0,6.0,48,0.00,,---,0.00,VWS V14.01,2013-03-03 11:22:00,
2013-03-03 04:27:00,45.7,28.1,30.01,NNE,29,3.0,6.0,50,0.00,,---,0.00,VWS V14.01,2013-03-03 11:27:00,
2013-03-03 04:32:00,45.8,28.2,30.00,NNE,23,4.0,6.0,50,0.00,,---,0.00,VWS V14.01,2013-03-03 11:32:00,
2013-03-03 04:37:00,46.2,28.6,30.00,North,351,3.0,5.0,50,0.00,,---,0.00,VWS V14.01,2013-03-03 11:37:00,
2013-03-03 04:42:00,46.5,28.9,30.00,NNE,27,4.0,7.0,50,0.00,,---,0.00,VWS V14.01,2013-03-03 11:42:00,
2013-03-03 04:47:00,46.8,29.2,30.00,NNE,18,3.0,7.0,50,0.00,,---,0.00,VWS V14.01,2013-03-03 11:47:00,
2013-03-03 04:52:00,46.9,28.8,30.00,North,4,0.0,7.0,49,0.00,,---,0.00,VWS V14.01,2013-03-03 11:52:00,
2013-03-03 04:57:00,46.7,28.6,30.01,North,4,0.0,7.0,49,0.00,,---,0.00,VWS V14.01,2013-03-03 11:57:00,
2013-03-03 05:02:00,46.8,28.7,30.01,North,349,0.0,7.0,49,0.00,,---,0.00,VWS V14.01,2013-03-03 12:02:00,
2013-03-03 05:07:00,47.3,28.6,30.01,NNW,339,0.0,1.0,48,0.00,,---,0.00,VWS V14.01,2013-03-03 12:07:00,
2013-03-03 05:12:00,47.7,28.0,30.01,NNW,338,0.0,1.0,46,0.00,,---,0.00,VWS V14.01,2013-03-03 12:12:00,
2013-03-03 05:17:00,48.8,28.4,30.01,NE,41,1.0,2.0,45,0.00,,---,0.00,VWS V14.01,2013-03-03 12:17:00,
2013-03-03 05:23:00,48.6,27.7,30.01,NE,36,4.0,5.0,44,0.00,,---,0.00,VWS V14.01,2013-03-03 12:23:00,
2013-03-03 05:28:00,47.2,27.5,30.01,NE,51,3.0,6.0,46,0.00,,---,0.00,VWS V14.01,2013-03-03 12:28:00,
2013-03-03 05:33:00,46.4,27.8,30.01,NE,46,5.0,9.0,48,0.00,,---,0.00,VWS V14.01,2013-03-03 12:33:00,
2013-03-03 05:38:00,45.7,27.6,30.01,NNE,23,5.0,8.0,49,0.00,,---,0.00,VWS V14.01,2013-03-03 12:38:00,
2013-03-03 05:43:00,45.2,28.2,30.01,NNE,30,3.0,8.0,51,0.00,,---,0.00,VWS V14.01,2013-03-03 12:43:00,
2013-03-03 05:48:00,44.9,28.4,30.01,NNE,26,2.0,8.0,52,0.00,,---,0.00,VWS V14.01,2013-03-03 12:48:00,
2013-03-03 05:53:00,44.9,28.4,30.01,North,10,0.0,8.0,52,0.00,,---,0.00,VWS V14.01,2013-03-03 12:53:00,
2013-03-03 05:58:00,45.0,28.5,30.01,NNE,12,2.0,8.0,52,0.00,,---,0.00,VWS V14.01,2013-03-03 12:58:00,
2013-03-03 06:03:00,45.5,28.4,30.01,North,4,2.0,8.0,51,0.00,,---,0.00,VWS V14.01,2013-03-03 13:03:00,
2013-03-03 06:08:00,45.9,28.3,30.01,NNW,335,1.0,3.0,50,0.00,,---,0.00,VWS V14.01,2013-03-03 13:08:00,
2013-03-03 06:13:00,46.6,28.0,30.01,North,11,3.0,4.0,48,0.00,,---,0.00,VWS V14.01,2013-03-03 13:13:00,
2013-03-03 06:18:00,47.5,27.8,30.01,NNW,343,2.0,4.0,46,0.00,,---,0.00,VWS V14.01,2013-03-03 13:18:00,
2013-03-03 06:23:00,48.0,27.1,30.01,North,4,1.0,4.0,44,0.00,,---,0.00,VWS V14.01,2013-03-03 13:23:00,
2013-03-03 06:28:00,48.9,27.4,30.01,NNE,32,1.0,4.0,43,0.00,,---,0.00,VWS V14.01,2013-03-03 13:28:00,
2013-03-03 06:33:00,48.7,27.2,30.01,NE,51,3.0,3.0,43,0.00,,---,0.00,VWS V14.01,2013-03-03 13:33:00,
2013-03-03 06:38:00,48.2,27.9,30.01,NE,46,4.0,4.0,45,0.00,,---,0.00,VWS V14.01,2013-03-03 13:38:00,
2013-03-03 06:43:00,46.8,27.6,30.01,NE,44,2.0,5.0,47,0.00,,---,0.00,VWS V14.01,2013-03-03 13:43:00,
2013-03-03 06:48:00,45.8,27.7,30.01,NE,48,4.0,6.0,49,0.00,,---,0.00,VWS V14.01,2013-03-03 13:48:00,
2013-03-03 06:54:00,45.1,27.6,30.01,NE,44,2.0,6.0,50,0.00,,---,0.00,VWS V14.01,2013-03-03 13:54:00,
2013-03-03 06:59:00,44.8,27.8,30.01,NNE,22,4.0,6.0,51,0.00,,---,0.00,VWS V14.01,2013-03-03 13:59:00,
2013-03-03 07:03:00,45.4,27.9,30.01,NNE,32,3.0,5.0,50,0.00,,---,0.00,VWS V14.01,2013-03-03 14:03:00,
2013-03-03 07:09:00,45.9,27.8,30.01,North,354,0.0,5.0,49,0.00,,---,0.00,VWS V14.01,2013-03-03 14:09:00,
2013-03-03 07:14:00,45.5,27.5,30.01,North,3,0.0,5.0,49,0.00,,---,0.00,VWS V14.01,2013-03-03 14:14:00,
2013-03-03 07:19:00,45.5,28.0,30.01,NNE,20,1.0,5.0,50,0.00,,---,0.00,VWS V14.01,2013-03-03 14:19:00,
2013-03-03 07:24:00,46.6,28.5,30.01,North,358,0.0,5.0,49,0.00,,---,0.00,VWS V14.01,2013-03-03 14:24:00,
2013-03-03 07:29:00,47.4,28.7,30.01,North,359,0.0,5.0,48,0.00,,---,0.00,VWS V14.01,2013-03-03 14:29:00,
2013-03-03 07:34:00,48.0,28.8,30.02,NE,34,0.0,0.0,47,0.00,,---,0.00,VWS V14.01,2013-03-03 14:34:00,
2013-03-03 07:39:00,48.1,28.8,30.02,ENE,71,2.0,2.0,47,0.00,,---,0.00,VWS V14.01,2013-03-03 14:39:00,
2013-03-03 07:44:00,47.2,28.5,30.02,ENE,57,3.0,5.0,48,0.00,,---,0.00,VWS V14.01,2013-03-03 14:44:00,
2013-03-03 07:49:00,46.9,28.8,30.02,NE,47,4.0,6.0,49,0.00,,---,0.00,VWS V14.01,2013-03-03 14:49:00,
2013-03-03 07:54:00,47.4,29.2,30.02,NE,40,5.0,6.0,49,0.00,,---,0.00,VWS V14.01,2013-03-03 14:54:00,
2013-03-03 07:59:00,47.7,29.5,30.02,NE,45,3.0,7.0,49,0.00,,---,0.00,VWS V14.01,2013-03-03 14:59:00,
2013-03-03 08:05:00,48.2,30.0,30.02,NE,48,3.0,5.0,49,0.00,,---,0.00,VWS V14.01,2013-03-03 15:05:00,
2013-03-03 08:10:00,48.8,30.5,30.03,NNE,23,1.0,6.0,49,0.00,,---,0.00,VWS V14.01,2013-03-03 15:10:00,
2013-03-03 08:15:00,49.8,30.4,30.03,NNE,16,0.0,6.0,47,0.00,,---,0.00,VWS V14.01,2013-03-03 15:15:00,
2013-03-03 08:20:00,51.2,31.1,30.03,NNE,16,0.0,6.0,46,0.00,,---,0.00,VWS V14.01,2013-03-03 15:20:00,
2013-03-03 08:25:00,52.7,31.4,30.03,NNE,14,0.0,6.0,44,0.00,,---,0.00,VWS V14.01,2013-03-03 15:25:00,
2013-03-03 08:30:00,54.5,31.9,30.03,NNE,15,0.0,6.0,42,0.00,,---,0.00,VWS V14.01,2013-03-03 15:30:00,
2013-03-03 08:35:00,56.2,31.6,30.03,NNE,15,0.0,0.0,39,0.00,,---,0.00,VWS V14.01,2013-03-03 15:35:00,
2013-03-03 08:40:00,57.8,31.7,30.03,NNE,14,0.0,0.0,37,0.00,,---,0.00,VWS V14.01,2013-03-03 15:40:00,
2013-03-03 08:45:00,59.7,33.4,30.03,NNE,14,0.0,0.0,37,0.00,,---,0.00,VWS V14.01,2013-03-03 15:45:00,
2013-03-03 08:50:00,61.8,32.4,30.03,NNE,15,0.0,0.0,33,0.00,,---,0.00,VWS V14.01,2013-03-03 15:50:00,
2013-03-03 08:55:00,63.2,32.9,30.03,NNE,15,0.0,0.0,32,0.00,,---,0.00,VWS V14.01,2013-03-03 15:55:00,
2013-03-03 09:00:00,64.7,34.2,30.03,NNE,14,0.0,0.0,32,0.00,,---,0.00,VWS V14.01,2013-03-03 16:00:00,
2013-03-03 09:05:00,65.4,33.2,30.03,NNE,15,0.0,0.0,30,0.00,,---,0.00,VWS V14.01,2013-03-03 16:05:00,
2013-03-03 09:11:00,65.8,32.7,30.03,ENE,63,0.0,0.0,29,0.00,,---,0.00,VWS V14.01,2013-03-03 16:11:00,
2013-03-03 09:16:00,65.8,32.7,30.03,ENE,64,0.0,0.0,29,0.00,,---,0.00,VWS V14.01,2013-03-03 16:16:00,
2013-03-03 09:21:00,65.9,31.9,30.03,ENE,65,0.0,0.0,28,0.00,,---,0.00,VWS V14.01,2013-03-03 16:21:00,
2013-03-03 09:26:00,66.4,31.4,30.03,ENE,65,0.0,0.0,27,0.00,,---,0.00,VWS V14.01,2013-03-03 16:26:00,
2013-03-03 09:31:00,67.3,30.3,30.03,ENE,65,0.0,0.0,25,0.00,,---,0.00,VWS V14.01,2013-03-03 16:31:00,
2013-03-03 09:36:00,68.4,28.1,30.02,SSW,193,0.0,0.0,22,0.00,,---,0.00,VWS V14.01,2013-03-03 16:36:00,
2013-03-03 09:41:00,68.5,30.3,30.02,SSW,205,0.0,0.0,24,0.00,,---,0.00,VWS V14.01,2013-03-03 16:41:00,
2013-03-03 09:46:00,69.5,29.0,30.02,ESE,111,0.0,0.0,22,0.00,,---,0.00,VWS V14.01,2013-03-03 16:46:00,
2013-03-03 09:51:00,70.2,29.6,30.02,South,191,0.0,0.0,22,0.00,,---,0.00,VWS V14.01,2013-03-03 16:51:00,
2013-03-03 09:56:00,70.3,29.7,30.02,ESE,113,0.0,2.0,22,0.00,,---,0.00,VWS V14.01,2013-03-03 16:56:00,
2013-03-03 10:01:00,70.6,29.9,30.02,SSW,206,0.0,2.0,22,0.00,,---,0.00,VWS V14.01,2013-03-03 17:01:00,
2013-03-03 10:06:00,71.1,29.2,30.01,WSW,249,2.0,3.0,21,0.00,,---,0.00,VWS V14.01,2013-03-03 17:06:00,
2013-03-03 10:11:00,71.0,29.1,30.01,South,179,2.0,5.0,21,0.00,,---,0.00,VWS V14.01,2013-03-03 17:11:00,
2013-03-03 10:16:00,70.9,29.0,30.01,South,173,3.0,5.0,21,0.00,,---,0.00,VWS V14.01,2013-03-03 17:16:00,
2013-03-03 10:21:00,70.9,29.0,30.01,SW,221,1.0,5.0,21,0.00,,---,0.00,VWS V14.01,2013-03-03 17:21:00,
2013-03-03 10:26:00,70.9,29.0,30.01,SE,142,3.0,5.0,21,0.00,,---,0.00,VWS V14.01,2013-03-03 17:26:00,
2013-03-03 10:31:00,71.3,29.4,30.00,SW,217,2.0,5.0,21,0.00,,---,0.00,VWS V14.01,2013-03-03 17:31:00,
2013-03-03 10:36:00,71.4,28.3,30.00,SW,222,2.0,8.0,20,0.00,,---,0.00,VWS V14.01,2013-03-03 17:36:00,
2013-03-03 10:41:00,71.4,27.0,30.00,SW,222,3.0,8.0,19,0.00,,---,0.00,VWS V14.01,2013-03-03 17:41:00,
2013-03-03 10:46:00,71.3,27.0,30.00,SSW,193,2.0,8.0,19,0.00,,---,0.00,VWS V14.01,2013-03-03 17:46:00,
2013-03-03 10:51:00,71.8,27.4,30.00,SSW,208,6.0,8.0,19,0.00,,---,0.00,VWS V14.01,2013-03-03 17:51:00,
2013-03-03 10:57:00,71.8,26.0,30.00,West,259,4.0,8.0,18,0.00,,---,0.00,VWS V14.01,2013-03-03 17:57:00,
2013-03-03 11:01:00,72.1,26.3,30.00,SSW,212,3.0,8.0,18,0.00,,---,0.00,VWS V14.01,2013-03-03 18:01:00,
2013-03-03 11:07:00,72.1,24.9,30.00,SW,228,6.0,8.0,17,0.00,,---,0.00,VWS V14.01,2013-03-03 18:07:00,
2013-03-03 11:12:00,72.6,25.3,30.00,SW,224,4.0,8.0,17,0.00,,---,0.00,VWS V14.01,2013-03-03 18:12:00,
2013-03-03 11:17:00,72.8,25.5,30.00,SW,222,4.0,8.0,17,0.00,,---,0.00,VWS V14.01,2013-03-03 18:17:00,
2013-03-03 11:22:00,73.3,24.4,30.00,WSW,248,4.0,8.0,16,0.00,,---,0.00,VWS V14.01,2013-03-03 18:22:00,
2013-03-03 11:27:00,73.4,23.0,30.00,WNW,288,5.0,9.0,15,0.00,,---,0.00,VWS V14.01,2013-03-03 18:27:00,
2013-03-03 11:32:00,73.3,19.5,30.00,SW,218,4.0,9.0,13,0.00,,---,0.00,VWS V14.01,2013-03-03 18:32:00,
2013-03-03 11:37:00,73.6,21.5,29.99,SSW,198,6.0,8.0,14,0.00,,---,0.00,VWS V14.01,2013-03-03 18:37:00,
2013-03-03 11:42:00,73.5,21.4,30.00,WSW,253,3.0,9.0,14,0.00,,---,0.00,VWS V14.01,2013-03-03 18:42:00,
2013-03-03 11:47:00,73.7,23.2,29.99,SW,232,4.0,9.0,15,0.00,,---,0.00,VWS V14.01,2013-03-03 18:47:00,
2013-03-03 11:52:00,74.2,22.0,29.99,SSE,158,2.0,9.0,14,0.00,,---,0.00,VWS V14.01,2013-03-03 18:52:00,
2013-03-03 11:57:00,74.7,22.4,29.99,South,169,3.0,9.0,14,0.00,,---,0.00,VWS V14.01,2013-03-03 18:57:00,
2013-03-03 12:02:00,74.7,22.4,29.99,SW,215,0.0,9.0,14,0.00,,---,0.00,VWS V14.01,2013-03-03 19:02:00,
2013-03-03 12:07:00,75.0,19.0,29.99,SW,219,5.0,9.0,12,0.00,,---,0.00,VWS V14.01,2013-03-03 19:07:00,
2013-03-03 12:12:00,75.1,20.9,29.98,SW,233,7.0,9.0,13,0.00,,---,0.00,VWS V14.01,2013-03-03 19:12:00,
2013-03-03 12:17:00,75.4,17.3,29.98,SSW,203,3.0,9.0,11,0.00,,---,0.00,VWS V14.01,2013-03-03 19:17:00,
2013-03-03 12:22:00,76.8,20.4,29.97,South,183,2.0,9.0,12,0.00,,---,0.00,VWS V14.01,2013-03-03 19:22:00,
2013-03-03 12:27:00,76.1,19.9,29.97,South,174,1.0,9.0,12,0.00,,---,0.00,VWS V14.01,2013-03-03 19:27:00,
2013-03-03 12:32:00,75.7,19.5,29.97,South,170,3.0,9.0,12,0.00,,---,0.00,VWS V14.01,2013-03-03 19:32:00,
2013-03-03 12:37:00,75.4,17.3,29.97,SSW,212,1.0,5.0,11,0.00,,---,0.00,VWS V14.01,2013-03-03 19:37:00,
2013-03-03 12:42:00,75.0,19.0,29.96,SW,235,3.0,5.0,12,0.00,,---,0.00,VWS V14.01,2013-03-03 19:42:00,
2013-03-03 12:47:00,74.7,16.7,29.96,SE,138,2.0,8.0,11,0.00,,---,0.00,VWS V14.01,2013-03-03 19:47:00,
2013-03-03 12:52:00,74.4,18.5,29.96,SW,224,3.0,8.0,12,0.00,,---,0.00,VWS V14.01,2013-03-03 19:52:00,
2013-03-03 12:57:00,74.0,18.2,29.96,South,173,0.0,8.0,12,0.00,,---,0.00,VWS V14.01,2013-03-03 19:57:00,
2013-03-03 13:02:00,74.7,20.6,29.96,ESE,120,0.0,8.0,13,0.00,,---,0.00,VWS V14.01,2013-03-03 20:02:00,
2013-03-03 13:08:00,75.7,15.3,29.95,South,189,2.0,6.0,10,0.00,,---,0.00,VWS V14.01,2013-03-03 20:08:00,
2013-03-03 13:13:00,75.1,14.9,29.95,West,263,1.0,6.0,10,0.00,,---,0.00,VWS V14.01,2013-03-03 20:13:00,
2013-03-03 13:18:00,76.1,15.6,29.95,WSW,248,0.0,6.0,10,0.00,,---,0.00,VWS V14.01,2013-03-03 20:18:00,
2013-03-03 13:23:00,75.9,15.5,29.95,NW,315,5.0,8.0,10,0.00,,---,0.00,VWS V14.01,2013-03-03 20:23:00,
2013-03-03 13:28:00,76.4,18.0,29.95,NW,307,2.0,8.0,11,0.00,,---,0.00,VWS V14.01,2013-03-03 20:28:00,
2013-03-03 13:33:00,76.7,16.1,29.94,West,266,1.0,8.0,10,0.00,,---,0.00,VWS V14.01,2013-03-03 20:33:00,
2013-03-03 13:38:00,76.1,17.8,29.94,ENE,67,0.0,3.0,11,0.00,,---,0.00,VWS V14.01,2013-03-03 20:38:00,
2013-03-03 13:43:00,77.0,20.5,29.94,WSW,246,2.0,4.0,12,0.00,,---,0.00,VWS V14.01,2013-03-03 20:43:00,
2013-03-03 13:48:00,76.8,18.4,29.94,WSW,248,7.0,8.0,11,0.00,,---,0.00,VWS V14.01,2013-03-03 20:48:00,
2013-03-03 13:53:00,76.2,17.9,29.94,West,267,1.0,8.0,11,0.00,,---,0.00,VWS V14.01,2013-03-03 20:53:00,
2013-03-03 13:58:00,76.4,20.1,29.95,WSW,246,2.0,8.0,12,0.00,,---,0.00,VWS V14.01,2013-03-03 20:58:00,
2013-03-03 14:03:00,76.8,18.4,29.95,West,267,3.0,10.0,11,0.00,,---,0.00,VWS V14.01,2013-03-03 21:03:00,
2013-03-03 14:08:00,76.3,15.8,29.95,WNW,294,9.0,12.0,10,0.00,,---,0.00,VWS V14.01,2013-03-03 21:08:00,
2013-03-03 14:13:00,76.3,18.0,29.94,WSW,257,1.0,12.0,11,0.00,,---,0.00,VWS V14.01,2013-03-03 21:13:00,
2013-03-03 14:18:00,76.1,17.8,29.94,WSW,240,4.0,13.0,11,0.00,,---,0.00,VWS V14.01,2013-03-03 21:18:00,
2013-03-03 14:23:00,76.4,13.4,29.93,WNW,293,5.0,13.0,9,0.00,,---,0.00,VWS V14.01,2013-03-03 21:23:00,
2013-03-03 14:28:00,76.6,16.0,29.93,West,266,4.0,13.0,10,0.00,,---,0.00,VWS V14.01,2013-03-03 21:28:00,
2013-03-03 14:33:00,76.5,15.9,29.92,West,269,6.0,6.0,10,0.00,,---,0.00,VWS V14.01,2013-03-03 21:33:00,
2013-03-03 14:38:00,76.1,15.6,29.92,SW,233,7.0,11.0,10,0.00,,---,0.00,VWS V14.01,2013-03-03 21:38:00,
2013-03-03 14:43:00,76.2,13.3,29.92,WSW,253,4.0,11.0,9,0.00,,---,0.00,VWS V14.01,2013-03-03 21:43:00,
2013-03-03 14:48:00,76.3,15.8,29.92,WNW,302,9.0,11.0,10,0.00,,---,0.00,VWS V14.01,2013-03-03 21:48:00,
2013-03-03 14:53:00,76.4,15.9,29.92,WSW,245,6.0,11.0,10,0.00,,---,0.00,VWS V14.01,2013-03-03 21:53:00,
2013-03-03 14:58:00,75.8,15.4,29.92,WSW,256,2.0,11.0,10,0.00,,---,0.00,VWS V14.01,2013-03-03 21:58:00,
2013-03-03 15:04:00,75.5,15.2,29.90,SW,229,5.0,5.0,10,0.00,,---,0.00,VWS V14.01,2013-03-03 22:04:00,
2013-03-03 15:09:00,75.5,17.4,29.90,West,271,1.0,5.0,11,0.00,,---,0.00,VWS V14.01,2013-03-03 22:09:00,
2013-03-03 15:14:00,75.5,15.2,29.91,SSE,164,0.0,5.0,10,0.00,,---,0.00,VWS V14.01,2013-03-03 22:14:00,
2013-03-03 15:19:00,75.5,15.2,29.91,SW,219,2.0,7.0,10,0.00,,---,0.00,VWS V14.01,2013-03-03 22:19:00,
2013-03-03 15:24:00,75.3,15.0,29.91,WNW,288,2.0,8.0,10,0.00,,---,0.00,VWS V14.01,2013-03-03 22:24:00,
2013-03-03 15:29:00,75.5,17.4,29.91,WNW,285,5.0,8.0,11,0.00,,---,0.00,VWS V14.01,2013-03-03 22:29:00,
2013-03-03 15:34:00,75.3,17.2,29.92,WSW,248,3.0,6.0,11,0.00,,---,0.00,VWS V14.01,2013-03-03 22:34:00,
2013-03-03 15:39:00,75.0,17.0,29.91,WSW,243,4.0,6.0,11,0.00,,---,0.00,VWS V14.01,2013-03-03 22:39:00,
2013-03-03 15:44:00,74.6,16.7,29.91,WSW,243,3.0,7.0,11,0.00,,---,0.00,VWS V14.01,2013-03-03 22:44:00,
2013-03-03 15:49:00,74.3,16.4,29.91,SSE,162,2.0,7.0,11,0.00,,---,0.00,VWS V14.01,2013-03-03 22:49:00,
2013-03-03 15:54:00,74.3,16.4,29.90,SW,236,0.0,7.0,11,0.00,,---,0.00,VWS V14.01,2013-03-03 22:54:00,
2013-03-03 15:59:00,74.5,16.6,29.88,NE,37,2.0,7.0,11,0.00,,---,0.00,VWS V14.01,2013-03-03 22:59:00,
2013-03-03 16:04:00,74.7,18.8,29.88,SW,226,1.0,1.0,12,0.00,,---,0.00,VWS V14.01,2013-03-03 23:04:00,
2013-03-03 16:09:00,74.6,18.7,29.87,SE,131,0.0,3.0,12,0.00,,---,0.00,VWS V14.01,2013-03-03 23:09:00,
2013-03-03 16:14:00,74.4,18.5,29.87,SSW,193,2.0,3.0,12,0.00,,---,0.00,VWS V14.01,2013-03-03 23:14:00,
2013-03-03 16:19:00,74.6,18.7,29.88,SW,224,3.0,3.0,12,0.00,,---,0.00,VWS V14.01,2013-03-03 23:19:00,
2013-03-03 16:24:00,74.2,20.2,29.90,WSW,238,4.0,6.0,13,0.00,,---,0.00,VWS V14.01,2013-03-03 23:24:00,
2013-03-03 16:30:00,74.1,20.2,29.91,WSW,253,3.0,10.0,13,0.00,,---,0.00,VWS V14.01,2013-03-03 23:30:00,
2013-03-03 16:35:00,73.9,20.0,29.90,West,259,3.0,6.0,13,0.00,,---,0.00,VWS V14.01,2013-03-03 23:35:00,
2013-03-03 16:40:00,73.6,19.8,29.88,WSW,240,0.0,6.0,13,0.00,,---,0.00,VWS V14.01,2013-03-03 23:40:00,
2013-03-03 16:45:00,73.6,19.8,29.88,WSW,249,3.0,6.0,13,0.00,,---,0.00,VWS V14.01,2013-03-03 23:45:00,
2013-03-03 16:50:00,74.3,20.3,29.89,WNW,297,3.0,6.0,13,0.00,,---,0.00,VWS V14.01,2013-03-03 23:50:00,
2013-03-03 16:55:00,74.1,20.2,29.90,WNW,283,4.0,9.0,13,0.00,,---,0.00,VWS V14.01,2013-03-03 23:55:00,
2013-03-03 17:00:00,73.7,19.8,29.90,WSW,257,3.0,9.0,13,0.00,,---,0.00,VWS V14.01,2013-03-04 00:00:00,
2013-03-03 17:05:00,73.5,21.4,29.90,SW,225,1.0,4.0,14,0.00,,---,0.00,VWS V14.01,2013-03-04 00:05:00,
2013-03-03 17:10:00,73.1,19.4,29.91,West,273,3.0,8.0,13,0.00,,---,0.00,VWS V14.01,2013-03-04 00:10:00,
2013-03-03 17:15:00,73.0,21.0,29.91,SW,235,4.0,8.0,14,0.00,,---,0.00,VWS V14.01,2013-03-04 00:15:00,
2013-03-03 17:20:00,72.7,22.4,29.91,West,274,4.0,8.0,15,0.00,,---,0.00,VWS V14.01,2013-03-04 00:20:00,
2013-03-03 17:25:00,72.3,20.5,29.91,WSW,240,7.0,9.0,14,0.00,,---,0.00,VWS V14.01,2013-03-04 00:25:00,
2013-03-03 17:30:00,72.0,18.5,29.92,West,274,7.0,10.0,13,0.00,,---,0.00,VWS V14.01,2013-03-04 00:30:00,
2013-03-03 17:36:00,71.8,16.5,29.92,West,276,3.0,5.0,12,0.00,,---,0.00,VWS V14.01,2013-03-04 00:36:00,
2013-03-03 17:41:00,71.5,16.3,29.93,West,274,4.0,8.0,12,0.00,,---,0.00,VWS V14.01,2013-03-04 00:41:00,
2013-03-03 17:46:00,71.3,16.1,29.92,West,271,2.0,8.0,12,0.00,,---,0.00,VWS V14.01,2013-03-04 00:46:00,
2013-03-03 17:51:00,71.0,15.9,29.93,West,270,3.0,8.0,12,0.00,,---,0.00,VWS V14.01,2013-03-04 00:51:00,
2013-03-03 17:56:00,70.8,17.6,29.93,WSW,255,3.0,8.0,13,0.00,,---,0.00,VWS V14.01,2013-03-04 00:56:00,
2013-03-03 18:01:00,70.7,17.5,29.92,NW,309,1.0,8.0,13,0.00,,---,0.00,VWS V14.01,2013-03-04 01:01:00,
2013-03-03 18:06:00,70.6,17.4,29.91,NW,316,2.0,2.0,13,0.00,,---,0.00,VWS V14.01,2013-03-04 01:06:00,
2013-03-03 18:11:00,70.4,17.2,29.92,North,352,0.0,2.0,13,0.00,,---,0.00,VWS V14.01,2013-03-04 01:11:00,
2013-03-03 18:16:00,70.1,18.7,29.92,NW,316,0.0,2.0,14,0.00,,---,0.00,VWS V14.01,2013-03-04 01:16:00,
2013-03-03 18:21:00,69.8,18.5,29.92,SE,136,1.0,2.0,14,0.00,,---,0.00,VWS V14.01,2013-03-04 01:21:00,
2013-03-03 18:26:00,69.5,18.2,29.92,East,97,0.0,2.0,14,0.00,,---,0.00,VWS V14.01,2013-03-04 01:26:00,
2013-03-03 18:31:00,69.1,19.5,29.91,East,94,0.0,2.0,15,0.00,,---,0.00,VWS V14.01,2013-03-04 01:31:00,
2013-03-03 18:36:00,68.8,19.3,29.91,ENE,60,1.0,2.0,15,0.00,,---,0.00,VWS V14.01,2013-03-04 01:36:00,
2013-03-03 18:41:00,68.4,19.0,29.91,East,97,0.0,2.0,15,0.00,,---,0.00,VWS V14.01,2013-03-04 01:41:00,
2013-03-03 18:46:00,68.2,18.8,29.90,ENE,63,0.0,2.0,15,0.00,,---,0.00,VWS V14.01,2013-03-04 01:46:00,
2013-03-03 18:51:00,68.1,18.7,29.91,ENE,65,0.0,2.0,15,0.00,,---,0.00,VWS V14.01,2013-03-04 01:51:00,
2013-03-03 18:56:00,68.0,20.2,29.91,East,95,0.0,2.0,16,0.00,,---,0.00,VWS V14.01,2013-03-04 01:56:00,
2013-03-03 19:01:00,67.8,20.0,29.91,NE,44,0.0,2.0,16,0.00,,---,0.00,VWS V14.01,2013-03-04 02:01:00,
2013-03-03 19:06:00,67.4,21.1,29.92,NE,44,0.0,1.0,17,0.00,,---,0.00,VWS V14.01,2013-03-04 02:06:00,
2013-03-03 19:11:00,67.1,20.9,29.93,West,269,0.0,1.0,17,0.00,,---,0.00,VWS V14.01,2013-03-04 02:11:00,
2013-03-03 19:16:00,67.0,20.8,29.93,West,269,0.0,1.0,17,0.00,,---,0.00,VWS V14.01,2013-03-04 02:16:00,
2013-03-03 19:21:00,67.0,20.8,29.92,NE,50,1.0,3.0,17,0.00,,---,0.00,VWS V14.01,2013-03-04 02:21:00,
2013-03-03 19:26:00,67.3,18.1,29.91,WNW,284,0.0,3.0,15,0.00,,---,0.00,VWS V14.01,2013-03-04 02:26:00,
2013-03-03 19:32:00,67.7,19.9,29.92,SW,226,0.0,3.0,16,0.00,,---,0.00,VWS V14.01,2013-03-04 02:32:00,
2013-03-03 19:37:00,67.9,20.1,29.92,WNW,290,0.0,4.0,16,0.00,,---,0.00,VWS V14.01,2013-03-04 02:37:00,
2013-03-03 19:42:00,67.8,20.0,29.92,East,82,1.0,4.0,16,0.00,,---,0.00,VWS V14.01,2013-03-04 02:42:00,
2013-03-03 19:47:00,69.1,21.1,29.91,SE,129,1.0,18.0,16,0.00,,---,0.00,VWS V14.01,2013-03-04 02:47:00,
2013-03-03 19:52:00,69.4,22.7,29.90,NE,53,1.0,18.0,17,0.00,,---,0.00,VWS V14.01,2013-03-04 02:52:00,
2013-03-03 19:57:00,69.6,22.9,29.90,NE,51,2.0,18.0,17,0.00,,---,0.00,VWS V14.01,2013-03-04 02:57:00,
2013-03-03 20:02:00,69.2,22.6,29.90,ESE,102,0.0,18.0,17,0.00,,---,0.00,VWS V14.01,2013-03-04 03:02:00,
2013-03-03 20:07:00,68.6,22.1,29.91,ESE,115,1.0,4.0,17,0.00,,---,0.00,VWS V14.01,2013-03-04 03:07:00,
2013-03-03 20:12:00,68.8,22.2,29.91,SE,132,2.0,5.0,17,0.00,,---,0.00,VWS V14.01,2013-03-04 03:12:00,
2013-03-03 20:17:00,69.7,23.0,29.91,ESE,122,0.0,5.0,17,0.00,,---,0.00,VWS V14.01,2013-03-04 03:17:00,
2013-03-03 20:22:00,69.4,21.3,29.91,West,267,3.0,5.0,16,0.00,,---,0.00,VWS V14.01,2013-03-04 03:22:00,
2013-03-03 20:27:00,69.3,24.0,29.92,WSW,253,3.0,6.0,18,0.00,,---,0.00,VWS V14.01,2013-03-04 03:27:00,
2013-03-03 20:32:00,68.8,24.9,29.92,WSW,246,4.0,6.0,19,0.00,,---,0.00,VWS V14.01,2013-03-04 03:32:00,
2013-03-03 20:37:00,68.3,25.7,29.93,WSW,249,3.0,8.0,20,0.00,,---,0.00,VWS V14.01,2013-03-04 03:37:00,
2013-03-03 20:42:00,68.0,25.5,29.93,WSW,250,3.0,8.0,20,0.00,,---,0.00,VWS V14.01,2013-03-04 03:42:00,
2013-03-03 20:47:00,67.5,23.8,29.94,WSW,250,5.0,12.0,19,0.00,,---,0.00,VWS V14.01,2013-03-04 03:47:00,
2013-03-03 20:52:00,67.1,23.5,29.94,WSW,246,4.0,12.0,19,0.00,,---,0.00,VWS V14.01,2013-03-04 03:52:00,
2013-03-03 20:57:00,66.7,23.2,29.92,SW,220,1.0,12.0,19,0.00,,---,0.00,VWS V14.01,2013-03-04 03:57:00,
2013-03-03 21:02:00,66.4,22.9,29.92,WSW,242,0.0,12.0,19,0.00,,---,0.00,VWS V14.01,2013-03-04 04:02:00,
2013-03-03 21:07:00,66.2,22.8,29.91,WSW,242,1.0,1.0,19,0.00,,---,0.00,VWS V14.01,2013-03-04 04:07:00,
2013-03-03 21:12:00,66.0,23.8,29.90,NNE,16,1.0,1.0,20,0.00,,---,0.00,VWS V14.01,2013-03-04 04:12:00,
2013-03-03 21:17:00,65.8,23.6,29.91,NNE,18,0.0,2.0,20,0.00,,---,0.00,VWS V14.01,2013-03-04 04:17:00,
2013-03-03 21:23:00,65.6,23.5,29.90,NE,44,3.0,3.0,20,0.00,,---,0.00,VWS V14.01,2013-03-04 04:23:00,
2013-03-03 21:28:00,65.4,24.5,29.90,NE,46,0.0,4.0,21,0.00,,---,0.00,VWS V14.01,2013-03-04 04:28:00,
2013-03-03 21:33:00,65.2,24.3,29.90,North,11,2.0,4.0,21,0.00,,---,0.00,VWS V14.01,2013-03-04 04:33:00,
2013-03-03 21:38:00,65.0,24.1,29.90,NNE,14,1.0,4.0,21,0.00,,---,0.00,VWS V14.01,2013-03-04 04:38:00,
2013-03-03 21:43:00,65.1,24.2,29.90,NNE,30,1.0,4.0,21,0.00,,---,0.00,VWS V14.01,2013-03-04 04:43:00,
2013-03-03 21:48:00,65.1,24.2,29.90,NNE,29,0.0,4.0,21,0.00,,---,0.00,VWS V14.01,2013-03-04 04:48:00,
2013-03-03 21:53:00,65.0,24.1,29.90,NNE,27,1.0,4.0,21,0.00,,---,0.00,VWS V14.01,2013-03-04 04:53:00,
2013-03-03 21:58:00,64.9,24.1,29.89,NNE,22,1.0,4.0,21,0.00,,---,0.00,VWS V14.01,2013-03-04 04:58:00,
2013-03-03 22:00:00,64.8,25.1,29.89,NNE,22,0.0,4.0,22,0.00,,---,0.00,VWS V14.01,2013-03-04 05:00:00,
2013-03-03 22:01:00,64.7,25.0,29.89,NNE,22,1.0,4.0,22,0.00,,---,0.00,VWS V14.01,2013-03-04 05:01:00,
2013-03-03 22:06:00,64.4,24.8,29.89,NNE,16,0.0,4.0,22,0.00,,---,0.00,VWS V14.01,2013-03-04 05:06:00,
2013-03-03 22:11:00,64.0,24.4,29.89,North,6,0.0,4.0,22,0.00,,---,0.00,VWS V14.01,2013-03-04 05:11:00,
2013-03-03 22:17:00,63.7,25.2,29.90,North,6,0.0,4.0,23,0.00,,---,0.00,VWS V14.01,2013-03-04 05:17:00,
2013-03-03 22:22:00,63.4,26.0,29.89,North,6,0.0,4.0,24,0.00,,---,0.00,VWS V14.01,2013-03-04 05:22:00,
2013-03-03 22:27:00,63.2,25.8,29.89,North,8,0.0,4.0,24,0.00,,---,0.00,VWS V14.01,2013-03-04 05:27:00,
2013-03-03 22:32:00,63.1,25.8,29.89,North,7,0.0,4.0,24,0.00,,---,0.00,VWS V14.01,2013-03-04 05:32:00,
2013-03-03 22:37:00,63.0,25.7,29.89,North,8,0.0,0.0,24,0.00,,---,0.00,VWS V14.01,2013-03-04 05:37:00,
2013-03-03 22:42:00,63.1,25.8,29.88,North,7,0.0,0.0,24,0.00,,---,0.00,VWS V14.01,2013-03-04 05:42:00,
2013-03-03 22:47:00,63.0,26.6,29.89,North,7,0.0,0.0,25,0.00,,---,0.00,VWS V14.01,2013-03-04 05:47:00,
2013-03-03 22:52:00,62.8,26.5,29.89,North,6,0.0,0.0,25,0.00,,---,0.00,VWS V14.01,2013-03-04 05:52:00,
2013-03-03 22:57:00,62.9,25.6,29.88,North,8,0.0,0.0,24,0.00,,---,0.00,VWS V14.01,2013-03-04 05:57:00,
2013-03-03 23:02:00,63.2,24.8,29.88,North,7,0.0,0.0,23,0.00,,---,0.00,VWS V14.01,2013-03-04 06:02:00,
2013-03-03 23:08:00,63.3,24.9,29.88,NW,310,0.0,0.0,23,0.00,,---,0.00,VWS V14.01,2013-03-04 06:08:00,
2013-03-03 23:13:00,63.3,24.9,29.88,West,281,1.0,1.0,23,0.00,,---,0.00,VWS V14.01,2013-03-04 06:13:00,
2013-03-03 23:18:00,63.3,24.9,29.88,West,267,1.0,2.0,23,0.00,,---,0.00,VWS V14.01,2013-03-04 06:18:00,
2013-03-03 23:23:00,63.4,25.0,29.87,West,262,1.0,2.0,23,0.00,,---,0.00,VWS V14.01,2013-03-04 06:23:00,
2013-03-03 23:28:00,63.6,25.1,29.87,WSW,248,1.0,2.0,23,0.00,,---,0.00,VWS V14.01,2013-03-04 06:28:00,
2013-03-03 23:33:00,63.6,25.1,29.87,SW,230,4.0,6.0,23,0.00,,---,0.00,VWS V14.01,2013-03-04 06:33:00,
2013-03-03 23:38:00,64.0,24.4,29.87,SSW,198,4.0,8.0,22,0.00,,---,0.00,VWS V14.01,2013-03-04 06:38:00,
2013-03-03 23:43:00,64.2,23.5,29.87,SW,235,6.0,8.0,21,0.00,,---,0.00,VWS V14.01,2013-03-04 06:43:00,
2013-03-03 23:48:00,64.3,23.6,29.86,WSW,237,2.0,8.0,21,0.00,,---,0.00,VWS V14.01,2013-03-04 06:48:00,
2013-03-03 23:53:00,64.2,23.5,29.86,WSW,249,2.0,8.0,21,0.00,,---,0.00,VWS V14.01,2013-03-04 06:53:00,
2013-03-03 23:58:00,64.1,22.2,29.87,SW,233,2.0,8.0,20,0.00,,---,0.00,VWS V14.01,2013-03-04 06:58:00,